CW9585 Weather Reports


Display with metric or nautical units.
time (UTC)temp
F
wind
direction
speed
MPH
gust
MPH
rain 1hr
in
rain 24hr
in
rain mn
in
humidity
%
barometer
mb
20200229124703 51 107 0.0 0.0 0.00 0.00 0.00 71 1016.7
20200229124204 51 107 0.0 0.0 0.00 0.00 0.00 71 1016.7
20200229123706 51 107 0.0 0.0 0.00 0.00 0.00 71 1016.8
20200229123204 51 107 0.0 0.0 0.00 0.00 0.00 71 1016.8
20200229122704 51 107 0.0 0.0 0.00 0.00 0.00 70 1016.7
20200229122203 51 107 0.0 0.0 0.00 0.00 0.00 70 1016.8
20200229121704 51 107 0.0 0.0 0.00 0.00 0.00 70 1016.8
20200229121204 51 107 0.0 0.0 0.00 0.00 0.00 70 1016.9
20200229120704 51 107 0.0 0.0 0.00 0.00 0.00 70 1016.8
20200229120204 51 107 0.0 0.0 0.00 0.00 0.00 70 1016.8
20200229115704 51 107 0.0 0.0 0.00 0.00 0.00 70 1016.8
20200229115204 51 107 0.0 0.0 0.00 0.00 0.00 70 1016.9
20200229114704 51 107 0.0 0.0 0.00 0.00 0.00 70 1016.7
20200229114204 51 107 0.0 0.0 0.00 0.00 0.00 70 1016.7
20200229113704 51 108 0.0 0.0 0.00 0.00 0.00 70 1016.7
20200229113204 52 107 0.0 0.0 0.00 0.00 0.00 70 1016.7
20200229112704 52 107 0.0 0.0 0.00 0.00 0.00 70 1016.8
20200229112204 52 107 0.0 0.0 0.00 0.00 0.00 70 1017.0
20200229111704 52 107 0.0 0.0 0.00 0.00 0.00 70 1016.9
20200229111204 52 107 0.0 0.0 0.00 0.00 0.00 70 1017.0
20200229110704 52 107 0.0 0.0 0.00 0.00 0.00 71 1016.9
20200229110203 52 107 0.0 0.0 0.00 0.00 0.00 70 1017.1
20200229105703 52 107 0.0 0.0 0.00 0.00 0.00 70 1017.0
20200229105206 52 107 0.0 0.0 0.00 0.00 0.00 70 1017.0
20200229104704 52 107 0.0 0.0 0.00 0.00 0.00 70 1017.0
20200229104204 52 107 0.0 0.0 0.00 0.00 0.00 71 1017.0
20200229103704 52 107 0.0 0.0 0.00 0.00 0.00 71 1017.0
20200229103204 52 107 0.0 0.0 0.00 0.00 0.00 70 1017.1
20200229102705 52 107 0.0 0.0 0.00 0.00 0.00 70 1017.2
20200229102203 52 107 0.0 0.0 0.00 0.00 0.00 70 1017.2
20200229101704 52 107 0.0 0.0 0.00 0.00 0.00 70 1017.2
20200229101203 52 107 0.0 0.0 0.00 0.00 0.00 70 1017.4
20200229100703 52 107 0.0 0.0 0.00 0.00 0.00 70 1017.4
20200229100204 52 107 0.0 0.0 0.00 0.00 0.00 71 1017.5
20200229095704 52 107 0.0 0.0 0.00 0.00 0.00 71 1017.5
20200229095204 52 107 0.0 0.0 0.00 0.00 0.00 71 1017.5
20200229094704 52 107 0.0 0.0 0.00 0.00 0.00 71 1017.5
20200229094204 52 107 0.0 0.0 0.00 0.00 0.00 71 1017.6
20200229093704 52 107 0.0 0.0 0.00 0.00 0.00 70 1017.6
20200229093204 52 107 0.0 0.0 0.00 0.00 0.00 71 1017.7
20200229092704 52 107 0.0 0.0 0.00 0.00 0.00 71 1017.5
20200229092203 52 107 0.0 0.0 0.00 0.00 0.00 71 1017.5
20200229091704 52 107 0.0 0.0 0.00 0.00 0.00 71 1017.6
20200229091204 52 107 0.0 0.0 0.00 0.00 0.00 71 1017.6
20200229090704 52 107 0.0 0.0 0.00 0.00 0.00 71 1017.7
20200229090204 52 108 0.0 0.0 0.00 0.00 0.00 71 1017.6
20200229085704 52 108 0.0 0.0 0.00 0.00 0.00 70 1017.6
20200229085203 52 107 0.0 0.0 0.00 0.00 0.00 71 1017.7
20200229084704 52 108 0.0 0.0 0.00 0.00 0.00 71 1017.6
20200229084204 52 107 0.0 0.0 0.00 0.00 0.00 71 1017.8
20200229083703 52 108 0.0 0.0 0.00 0.00 0.00 71 1017.7
20200229083204 52 107 0.0 0.0 0.00 0.00 0.00 71 1017.8
20200229082704 52 107 0.0 0.0 0.00 0.00 0.00 71 1017.7
20200229082204 52 107 0.0 0.0 0.00 0.00 0.00 71 1017.7
20200229081704 52 107 0.0 0.0 0.00 0.00 0.00 71 1017.8
20200229081204 52 107 0.0 4.0 0.00 0.00 0.00 71 1017.6
20200229080705 52 107 0.0 4.0 0.00 0.00 0.00 71 1017.5
20200229080204 52 107 0.0 1.0 0.00 0.00 0.00 71 1017.6
20200229075704 52 108 0.0 0.0 0.00 0.00 0.00 71 1017.7
20200229075204 52 107 0.0 0.0 0.00 0.00 0.00 71 1017.7
20200229074704 52 107 0.0 0.0 0.00 0.00 0.00 71 1017.7
20200229074204 52 107 0.0 0.0 0.00 0.00 0.00 71 1017.8
20200229073708 52 107 0.0 0.0 0.00 0.00 0.00 71 1017.8
20200229073204 52 107 0.0 0.0 0.00 0.00 0.00 71 1017.6
20200229072704 52 107 0.0 0.0 0.00 0.00 0.00 71 1017.6
20200229072204 52 108 0.0 0.0 0.00 0.00 0.00 71 1017.6
20200229071704 52 107 0.0 4.0 0.00 0.00 0.00 71 1017.7
20200229071204 52 107 0.0 5.0 0.00 0.00 0.00 71 1017.7
20200229070704 52 108 0.0 5.0 0.00 0.00 0.00 71 1017.8
20200229070204 52 107 0.0 5.0 0.00 0.00 0.00 71 1017.8
20200229065703 52 107 1.0 5.0 0.00 0.00 0.00 71 1018.1
20200229065204 52 107 1.0 8.0 0.00 0.00 0.00 71 1018.2
20200229064704 52 108 1.0 8.0 0.00 0.00 0.00 71 1018.2
20200229064205 52 108 1.0 11.0 0.00 0.00 0.00 71 1018.3
20200229063704 52 107 1.0 11.0 0.00 0.00 0.00 71 1018.3
20200229063204 52 107 1.0 7.0 0.00 0.00 0.00 71 1018.3
20200229062705 52 106 1.0 7.0 0.00 0.00 0.00 71 1018.3
20200229062204 52 106 1.0 9.0 0.00 0.00 0.00 71 1018.1
20200229061705 52 106 2.0 9.0 0.00 0.00 0.00 71 1018.3
20200229061205 52 106 1.0 9.0 0.00 0.00 0.00 71 1018.2
20200229060704 52 106 0.0 0.0 0.00 0.00 0.00 71 1018.3
20200229060204 52 106 0.0 0.0 0.00 0.00 0.00 71 1018.3
20200229055703 52 106 0.0 2.0 0.00 0.00 0.00 71 1018.0
20200229055204 52 106 0.0 3.0 0.00 0.00 0.00 71 1018.1
20200229054704 52 106 0.0 7.0 0.00 0.00 0.00 71 1018.1
20200229054204 52 106 0.0 7.0 0.00 0.00 0.00 71 1018.3
20200229053704 52 106 0.0 1.0 0.00 0.00 0.00 71 1018.3
20200229053204 53 106 0.0 5.0 0.00 0.00 0.00 71 1018.3
20200229052704 53 106 0.0 5.0 0.00 0.00 0.00 71 1018.5
20200229052204 53 106 0.0 9.0 0.00 0.00 0.00 71 1018.4
20200229051704 53 106 1.0 9.0 0.00 0.00 0.00 71 1018.5
20200229051204 53 106 1.0 5.0 0.00 0.00 0.00 71 1018.4
20200229050709 52 106 0.0 4.0 0.00 0.00 0.00 71 1018.2
20200229050209 52 106 0.0 8.0 0.00 0.00 0.00 71 1018.2
20200229045709 52 106 0.0 8.0 0.00 0.00 0.00 70 1018.3
20200229045211 52 106 0.0 8.0 0.00 0.00 0.00 70 1018.3
20200229044714 53 106 0.0 11.0 0.00 0.00 0.00 71 1018.2
20200229044209 53 106 1.0 11.0 0.00 0.00 0.00 70 1018.1
20200229043709 53 106 2.0 11.0 0.00 0.00 0.00 70 1018.2
20200229043208 53 105 2.0 10.0 0.00 0.00 0.00 70 1018.1
20200229042716 53 103 3.0 10.0 0.00 0.00 0.00 70 1018.1
20200229042209 53 103 3.0 10.0 0.00 0.00 0.00 69 1018.2
20200229041709 53 102 2.0 13.0 0.00 0.00 0.00 69 1018.1
20200229041209 53 101 4.0 13.0 0.00 0.00 0.00 69 1018.0
20200229040709 53 101 3.0 13.0 0.00 0.00 0.00 69 1017.8
20200229040209 53 92 1.0 9.0 0.00 0.00 0.00 69 1017.7
20200229035709 53 91 0.0 2.0 0.00 0.00 0.00 69 1017.8
20200229035209 54 91 0.0 5.0 0.00 0.00 0.00 69 1017.7
20200229034714 54 91 0.0 5.0 0.00 0.00 0.00 69 1017.5
20200229034214 54 91 0.0 7.0 0.00 0.00 0.00 69 1017.6
20200229033709 54 91 1.0 7.0 0.00 0.00 0.00 69 1017.7
20200229033204 54 91 1.0 7.0 0.00 0.00 0.00 69 1017.6
20200229032704 54 91 0.0 8.0 0.00 0.00 0.00 69 1017.5
20200229032203 54 91 0.0 10.0 0.00 0.00 0.00 69 1017.4
20200229031704 54 91 2.0 10.0 0.00 0.00 0.00 69 1017.5
20200229031204 54 91 2.0 10.0 0.00 0.00 0.00 69 1017.7
20200229030705 54 94 1.0 10.0 0.00 0.00 0.00 69 1017.7
20200229030204 54 96 1.0 10.0 0.00 0.00 0.00 69 1017.9
20200229025704 54 96 2.0 10.0 0.00 0.00 0.00 69 1017.9
20200229025204 54 102 1.0 10.0 0.00 0.00 0.00 69 1017.9
20200229024704 54 108 1.0 10.0 0.00 0.00 0.00 69 1017.6
20200229024204 54 108 1.0 10.0 0.00 0.00 0.00 68 1017.7
20200229023704 54 114 1.0 8.0 0.00 0.00 0.00 68 1017.6
20200229023204 55 115 1.0 7.0 0.00 0.00 0.00 68 1017.5
20200229022705 55 115 0.0 7.0 0.00 0.00 0.00 68 1017.2
20200229022204 55 115 0.0 8.0 0.00 0.00 0.00 68 1017.3
20200229021704 55 115 0.0 8.0 0.00 0.00 0.00 68 1017.3
20200229021203 55 115 1.0 9.0 0.00 0.00 0.00 68 1017.3
20200229020703 55 115 1.0 9.0 0.00 0.00 0.00 68 1017.3
20200229020204 56 115 1.0 9.0 0.00 0.00 0.00 67 1017.2
20200229015704 56 117 1.0 9.0 0.00 0.00 0.00 67 1017.1
20200229015204 56 119 1.0 9.0 0.00 0.00 0.00 67 1017.1
20200229014704 56 119 1.0 8.0 0.00 0.00 0.00 66 1017.1
20200229014204 57 123 2.0 8.0 0.00 0.00 0.00 66 1017.1
20200229013704 57 131 2.0 7.0 0.00 0.00 0.00 66 1017.1
20200229013204 57 137 1.0 7.0 0.00 0.00 0.00 65 1017.2
20200229012704 58 145 1.0 6.0 0.00 0.00 0.00 65 1017.1
20200229012204 58 145 1.0 5.0 0.00 0.00 0.00 64 1017.1
20200229011704 58 150 1.0 5.0 0.00 0.00 0.00 64 1017.1
20200229011204 58 153 0.0 5.0 0.00 0.00 0.00 64 1017.0
20200229010704 58 156 0.0 8.0 0.00 0.00 0.00 64 1016.9
20200229010205 58 156 0.0 8.0 0.00 0.00 0.00 64 1017.0
20200229005704 59 157 2.0 8.0 0.00 0.00 0.00 63 1017.1
20200229005204 60 159 2.0 6.0 0.00 0.00 0.00 61 1017.1
20200229004704 60 169 0.0 6.0 0.00 0.00 0.00 59 1017.0
20200229004203 61 171 0.0 6.0 0.00 0.00 0.00 58 1017.0
20200229003704 62 173 0.0 3.0 0.00 0.00 0.00 57 1017.0
20200229003204 62 189 0.0 1.0 0.00 0.00 0.00 56 1016.9
20200229002704 63 190 0.0 3.0 0.00 0.00 0.00 55 1016.9
20200229002205 63 190 0.0 3.0 0.00 0.00 0.00 54 1017.0
20200229001704 63 192 0.0 4.0 0.00 0.00 0.00 54 1017.2
20200229001204 64 194 0.0 4.0 0.00 0.00 0.00 53 1017.2
20200229000704 64 194 0.0 4.0 0.00 0.00 0.00 52 1017.3
20200229000204 65 199 0.0 0.0 0.00 0.00 0.00 51 1017.4
20200228235704 65 206 0.0 0.0 0.00 0.00 0.00 49 1017.3
20200228235204 66 206 0.0 0.0 0.00 0.00 0.00 48 1017.5
20200228234704 67 206 0.0 0.0 0.00 0.00 0.00 48 1017.5
20200228234204 67 206 0.0 0.0 0.00 0.00 0.00 47 1017.4
20200228233704 68 206 0.0 0.0 0.00 0.00 0.00 44 1017.4
20200228233204 69 206 0.0 0.0 0.00 0.00 0.00 41 1017.4
20200228232705 69 206 0.0 0.0 0.00 0.00 0.00 41 1017.4
20200228232204 69 206 0.0 0.0 0.00 0.00 0.00 42 1017.5
20200228231704 69 206 0.0 1.0 0.00 0.00 0.00 41 1017.5
20200228231204 69 206 0.0 7.0 0.00 0.00 0.00 39 1017.5
20200228230704 69 206 1.0 7.0 0.00 0.00 0.00 37 1017.5
20200228230204 70 206 1.0 7.0 0.00 0.00 0.00 35 1017.6
20200228225705 71 205 0.0 5.0 0.00 0.00 0.00 36 1017.5
20200228225204 72 205 0.0 5.0 0.00 0.00 0.00 35 1017.5
20200228224704 71 205 0.0 7.0 0.00 0.00 0.00 28 1017.5
20200228224203 71 205 0.0 7.0 0.00 0.00 0.00 27 1017.5
20200228223704 71 205 1.0 7.0 0.00 0.00 0.00 28 1017.5
20200228223205 71 205 1.0 7.0 0.00 0.00 0.00 30 1017.6
20200228222704 71 205 2.0 7.0 0.00 0.00 0.00 29 1017.5
20200228222204 71 205 1.0 6.0 0.00 0.00 0.00 30 1017.5
20200228221705 71 206 1.0 7.0 0.00 0.00 0.00 29 1017.6
20200228221204 71 206 1.0 7.0 0.00 0.00 0.00 28 1017.5
20200228220704 71 207 0.0 7.0 0.00 0.00 0.00 29 1017.6
20200228220204 71 207 1.0 7.0 0.00 0.00 0.00 28 1017.6
20200228215704 71 205 1.0 7.0 0.00 0.00 0.00 30 1017.6
20200228215203 71 205 1.0 6.0 0.00 0.00 0.00 33 1017.8
20200228214704 70 205 1.0 6.0 0.00 0.00 0.00 33 1017.9
20200228214204 70 204 1.0 5.0 0.00 0.00 0.00 33 1018.0
20200228213704 70 205 1.0 7.0 0.00 0.00 0.00 34 1017.9
20200228213204 71 204 1.0 9.0 0.00 0.00 0.00 34 1018.1
20200228212705 70 203 3.0 9.0 0.00 0.00 0.00 34 1017.9
20200228212204 70 203 3.0 9.0 0.00 0.00 0.00 34 1018.0
20200228211704 70 199 1.0 7.0 0.00 0.00 0.00 35 1017.9
20200228211205 69 198 2.0 7.0 0.00 0.00 0.00 37 1017.9
20200228210705 69 198 4.0 7.0 0.00 0.00 0.00 38 1018.0
20200228210205 69 198 3.0 10.0 0.00 0.00 0.00 37 1018.1
20200228205704 69 198 5.0 10.0 0.00 0.00 0.00 36 1018.1
20200228205204 69 196 5.0 10.0 0.00 0.00 0.00 34 1018.1
20200228204704 70 185 4.0 8.0 0.00 0.00 0.00 32 1018.2
20200228204204 71 157 3.0 7.0 0.00 0.00 0.00 32 1018.2
20200228203704 71 157 1.0 7.0 0.00 0.00 0.00 35 1018.1
20200228203204 70 157 0.0 0.0 0.00 0.00 0.00 35 1018.2
20200228202704 69 157 0.0 5.0 0.00 0.00 0.00 36 1018.3
20200228202204 68 157 0.0 6.0 0.00 0.00 0.00 36 1018.2
20200228201704 68 157 1.0 6.0 0.00 0.00 0.00 37 1018.3
20200228201204 68 157 2.0 6.0 0.00 0.00 0.00 35 1018.5
20200228200704 68 157 1.0 6.0 0.00 0.00 0.00 35 1018.6
20200228200204 68 157 0.0 7.0 0.00 0.00 0.00 36 1018.7
20200228195704 69 157 1.0 7.0 0.00 0.00 0.00 37 1018.8
20200228195204 69 157 1.0 7.0 0.00 0.00 0.00 36 1018.9
20200228194704 70 157 1.0 6.0 0.00 0.00 0.00 36 1019.0
20200228194204 70 157 0.0 2.0 0.00 0.00 0.00 36 1018.9
20200228193704 70 157 0.0 2.0 0.00 0.00 0.00 34 1019.1
20200228193204 71 157 0.0 6.0 0.00 0.00 0.00 34 1019.0
20200228192704 71 157 0.0 6.0 0.00 0.00 0.00 32 1019.1
20200228192204 72 157 0.0 5.0 0.00 0.00 0.00 31 1019.2
20200228191703 72 157 0.0 5.0 0.00 0.00 0.00 31 1019.1
20200228191204 72 157 0.0 3.0 0.00 0.00 0.00 31 1019.1
20200228190704 72 157 0.0 1.0 0.00 0.00 0.00 30 1019.3
20200228190204 72 157 0.0 6.0 0.00 0.00 0.00 30 1019.2
20200228185704 72 157 0.0 6.0 0.00 0.00 0.00 29 1019.3
20200228185204 71 157 0.0 6.0 0.00 0.00 0.00 29 1019.3
20200228184704 71 157 0.0 0.0 0.00 0.00 0.00 30 1019.3
20200228184204 71 157 0.0 3.0 0.00 0.00 0.00 31 1019.4
20200228183704 71 157 0.0 3.0 0.00 0.00 0.00 33 1019.4
20200228183204 70 157 0.0 3.0 0.00 0.00 0.00 34 1019.4
20200228182704 69 157 0.0 0.0 0.00 0.00 0.00 35 1019.4
20200228182204 69 157 0.0 0.0 0.00 0.00 0.00 35 1019.4
20200228181704 68 157 0.0 0.0 0.00 0.00 0.00 36 1019.2
20200228181204 68 157 0.0 0.0 0.00 0.00 0.00 38 1019.3
20200228180704 68 157 0.0 0.0 0.00 0.00 0.00 39 1019.2
20200228180204 67 157 0.0 0.0 0.00 0.00 0.00 39 1019.1
20200228175704 67 157 0.0 0.0 0.00 0.00 0.00 40 1019.1
20200228175205 66 157 0.0 0.0 0.00 0.00 0.00 40 1019.2
20200228174704 65 157 0.0 0.0 0.00 0.00 0.00 41 1019.2
20200228174203 65 157 0.0 0.0 0.00 0.00 0.00 42 1019.3
20200228173704 64 157 0.0 0.0 0.00 0.00 0.00 44 1019.3
20200228173204 63 157 0.0 0.0 0.00 0.00 0.00 46 1019.2
20200228172704 62 157 0.0 0.0 0.00 0.00 0.00 47 1019.3
20200228172205 62 157 0.0 0.0 0.00 0.00 0.00 47 1019.3
20200228171704 61 157 0.0 0.0 0.00 0.00 0.00 50 1019.4
20200228171204 60 157 0.0 0.0 0.00 0.00 0.00 49 1019.4
20200228170704 60 157 0.0 0.0 0.00 0.00 0.00 51 1019.4
20200228170204 60 157 0.0 0.0 0.00 0.00 0.00 52 1019.4
20200228165704 59 157 0.0 0.0 0.00 0.00 0.00 54 1019.4
20200228165204 58 157 0.0 0.0 0.00 0.00 0.00 54 1019.4
20200228164703 58 157 0.0 0.0 0.00 0.00 0.00 55 1019.4
20200228164204 57 157 0.0 0.0 0.00 0.00 0.00 56 1019.4
20200228163704 57 157 0.0 0.0 0.00 0.00 0.00 56 1019.3
20200228163204 56 157 0.0 0.0 0.00 0.00 0.00 58 1019.4
20200228162704 56 157 0.0 0.0 0.00 0.00 0.00 58 1019.4
20200228162204 56 157 0.0 0.0 0.00 0.00 0.00 59 1019.4
20200228161704 56 157 0.0 0.0 0.00 0.00 0.00 61 1019.4
20200228161204 55 157 0.0 0.0 0.00 0.00 0.00 58 1019.4
20200228160703 54 157 0.0 0.0 0.00 0.00 0.00 58 1019.3
20200228160204 54 157 0.0 0.0 0.00 0.00 0.00 59 1019.3
20200228155704 53 157 0.0 0.0 0.00 0.00 0.00 59 1019.3
20200228155204 53 157 0.0 0.0 0.00 0.00 0.00 59 1019.0
20200228154704 52 157 0.0 0.0 0.00 0.00 0.00 60 1019.0
20200228154204 51 157 0.0 0.0 0.00 0.00 0.00 62 1019.0
20200228153704 51 157 0.0 0.0 0.00 0.00 0.00 62 1018.7
20200228153204 51 157 0.0 0.0 0.00 0.00 0.00 61 1018.7
20200228152704 51 157 0.0 0.0 0.00 0.00 0.00 61 1018.7
20200228152204 51 157 0.0 0.0 0.00 0.00 0.00 60 1018.6
20200228151704 51 157 0.0 0.0 0.00 0.00 0.00 60 1018.5
20200228151204 51 157 0.0 0.0 0.00 0.00 0.00 59 1018.4
20200228150704 51 157 0.0 0.0 0.00 0.00 0.00 59 1018.3
20200228150204 52 157 0.0 0.0 0.00 0.00 0.00 58 1018.2
20200228145704 52 157 0.0 0.0 0.00 0.00 0.00 58 1018.2
20200228145204 52 157 0.0 0.0 0.00 0.00 0.00 57 1018.2
20200228144704 52 157 0.0 1.0 0.00 0.00 0.00 57 1018.2
20200228144204 52 157 0.0 1.0 0.00 0.00 0.00 57 1018.2
20200228143704 52 157 0.0 1.0 0.00 0.00 0.00 57 1018.2
20200228143204 52 157 0.0 0.0 0.00 0.00 0.00 57 1018.2
20200228142704 52 157 0.0 3.0 0.00 0.00 0.00 57 1018.1
20200228142203 52 157 0.0 3.0 0.00 0.00 0.00 57 1018.1
20200228141704 52 157 0.0 3.0 0.00 0.00 0.00 57 1018.2
20200228141203 52 157 0.0 0.0 0.00 0.00 0.00 58 1018.2
20200228140704 52 157 0.0 0.0 0.00 0.00 0.00 58 1018.2
20200228140204 52 157 0.0 1.0 0.00 0.00 0.00 58 1018.3
20200228135704 52 157 0.0 1.0 0.00 0.00 0.00 58 1018.1
20200228135203 52 157 0.0 0.0 0.00 0.00 0.00 58 1018.2
20200228134705 52 157 0.0 0.0 0.00 0.00 0.00 59 1018.2
20200228134204 52 157 0.0 0.0 0.00 0.00 0.00 59 1018.2
20200228133704 51 157 0.0 0.0 0.00 0.00 0.00 59 1018.2
20200228133204 51 157 0.0 0.0 0.00 0.00 0.00 60 1018.2
20200228132704 51 157 0.0 0.0 0.00 0.00 0.00 60 1018.2
20200228132204 51 157 0.0 0.0 0.00 0.00 0.00 60 1018.2
20200228131704 51 157 0.0 0.0 0.00 0.00 0.00 60 1018.3
20200228131204 52 157 0.0 0.0 0.00 0.00 0.00 59 1018.3
20200228130704 52 157 0.0 0.0 0.00 0.00 0.00 59 1018.2
20200228130205 52 157 0.0 0.0 0.00 0.00 0.00 58 1018.2
20200228125704 52 157 0.0 0.0 0.00 0.00 0.00 58 1018.2
20200228125204 53 157 0.0 0.0 0.00 0.00 0.00 58 1018.2